Powrót do katalogu

STARLINK-4462

AktywnyŁącznośćVLEO
NORAD 53781·PAYLOAD·🇺🇸 United States

Wystrzelony Sep 11, 2022 z Cape Canaveral Space Force Station

Loading…

Następne Przeloty (najbliższe 24 godziny)

TLE

ŚwieżeSource: CelesTrak SupGP

Epoka: Sep 14, 2026, 22:23 UTC

1 53781C 22111J   26257.93312500  .00273610  00000+0  94249-2 0  2571
2 53781  53.1591 141.8332 0001329  90.0282 347.4364 15.29348641    13

Śledź STARLINK-4462 w czasie rzeczywistym z AllMySat

Download on the App Store